Pratica di Mare, Italy

2:37 PM CET on February 21, 2017 (GMT +0100)
Pratica Di Mare Mil

Weather History for LIRE - September, 2012

Change the Weather History Date:

Tuesday, September 25, 2012

  Actual Average Record
Temperature  
Mean Temperature 72 °F -  
Max Temperature 78 °F 72 °F 80 °F (1999)
Min Temperature 67 °F 55 °F 51 °F (2008)
Cooling Degree Days 8    
Growing Degree Days 22 (Base 50)    
Moisture  
Dew Point 63 °F    
Average Humidity 71    
Maximum Humidity 88    
Minimum Humidity 48    
Precipitation  
Precipitation 0.00 in 0.15 in - ()
Sea Level Pressure  
Sea Level Pressure 29.90 in    
Wind  
Wind Speed 9 mph ()    
Max Wind Speed 17 mph    
Max Gust Speed -    
Visibility 7.1 miles    
Events Rain    
Averages and records for this station are not official NWS values.
T = Trace of Precipitation, MM = Missing Value Source: Averaged Metar Reports

Daily Weather History Graph

Daily Weather History Graph

Search for Another Location

Airport or City:

Trip Planner

Search our weather history database for the weather conditions in past years. The results will help you decide how hot, cold, wet, or windy it might be!

Date:

Astronomy

Sep. 25, 2012 Rise Set
Actual Time 7:01 AM CEST 7:01 PM CEST
Civil Twilight 6:33 AM CEST 7:29 PM CEST
Nautical Twilight 6:00 AM CEST 8:01 PM CEST
Astronomical Twilight 5:28 AM CEST 8:34 PM CEST
Moon 4:19 PM CEST (9/25) 2:00 AM CEST (9/25)
Length of Visible Light 12h 56m
Length of Day
12h 00m
Waxing Gibbous, 77% of the Moon is Illuminated
Sep 25
Waxing Gibbous
Sep 30
Full
Oct 8
Last Quarter
Oct 15
New
Oct 22
First Quarter

Hourly Weather History & Observations

Time (CEST) Temp. Dew Point Humidity Pressure Visibility Wind Dir Wind Speed Gust Speed Precip Events Conditions
12:55 AM 71.6 °F 66.2 °F 83% 29.86 in 5.6 mi WSW 9.2 mph - N/A   Mostly Cloudy
1:55 AM 71.6 °F 62.6 °F 73% 29.86 in 6.2 mi West 9.2 mph - N/A   Mostly Cloudy
2:00 AM 71 °F 63 °F 70% 29.88 in 6 mi West 9.2 mph - -   Mostly Cloudy
3:55 AM 69.8 °F 64.4 °F 83% 29.86 in 6.2 mi WSW 8.1 mph - N/A   Mostly Cloudy
4:55 AM 69.8 °F 66.2 °F 88% 29.86 in 6.2 mi West 6.9 mph - N/A   Mostly Cloudy
5:00 AM 69 °F 66 °F 86% 29.86 in 7 mi West 6.9 mph - -   Mostly Cloudy
5:55 AM 69.8 °F 64.4 °F 83% 29.86 in 6.2 mi WSW 2.3 mph - N/A   Mostly Cloudy
6:55 AM 68.0 °F 62.6 °F 83% 29.86 in 6.2 mi ESE 4.6 mph - N/A   Mostly Cloudy
7:55 AM 68.0 °F 62.6 °F 83% 29.89 in 6.2 mi East 8.1 mph - N/A   Mostly Cloudy
8:00 AM 68 °F 63 °F 80% 29.89 in 12 mi East 8.1 mph - -   Mostly Cloudy
8:55 AM 69.8 °F 64.4 °F 83% 29.89 in 6.2 mi East 6.9 mph - N/A   Scattered Clouds
9:55 AM 71.6 °F 66.2 °F 83% 29.89 in 6.2 mi East 10.4 mph - N/A   Partly Cloudy
10:55 AM 73.4 °F 62.6 °F 69% 29.92 in 6.2 mi ESE 8.1 mph - N/A   Scattered Clouds
11:00 AM 74 °F 62 °F 58% 29.93 in 12 mi ESE 8.1 mph - -   Scattered Clouds
11:55 AM 77.0 °F 59.0 °F 54% 29.92 in 6.2 mi SSE 6.9 mph - N/A   Scattered Clouds
12:55 PM 77.0 °F 59.0 °F 54% 29.92 in 6.2 mi SSE 12.7 mph - N/A   Scattered Clouds
1:55 PM 77.0 °F 60.8 °F 57% 29.92 in 6.2 mi SSE 17.3 mph - N/A   Scattered Clouds
2:00 PM 77 °F 61 °F 48% 29.94 in 12 mi SSE 17.3 mph - -   Scattered Clouds
2:55 PM 77.0 °F 60.8 °F 57% 29.92 in 6.2 mi SSE 13.8 mph - N/A   Partly Cloudy
3:55 PM 77.0 °F 62.6 °F 61% 29.92 in 6.2 mi SSE 15.0 mph - N/A   Scattered Clouds
4:55 PM 75.2 °F 62.6 °F 65% 29.89 in 6.2 mi SSE 16.1 mph - N/A   Scattered Clouds
5:00 PM 76 °F 63 °F 55% 29.91 in 12 mi SSE 16.1 mph - -   Scattered Clouds
5:55 PM 75.2 °F 64.4 °F 69% 29.89 in 6.2 mi SE 13.8 mph - N/A   Scattered Clouds
6:12 PM 75.2 °F 64.4 °F 69% 29.89 in 6.2 mi SE 13.8 mph - N/A Rain Light Rain
6:55 PM 75.2 °F 64.4 °F 69% 29.89 in 6.2 mi SE 12.7 mph - N/A   Scattered Clouds
7:55 PM 73.4 °F 64.4 °F 73% 29.89 in 6.2 mi SE 13.8 mph - N/A   Scattered Clouds
8:00 PM 74 °F 64 °F 63% 29.90 in 9 mi SE 13.8 mph - -   Partly Cloudy
8:55 PM 73.4 °F 64.4 °F 73% 29.89 in 6.2 mi ESE 12.7 mph - N/A   Partly Cloudy
9:55 PM 71.6 °F 64.4 °F 78% 29.89 in 6.2 mi ESE 11.5 mph - N/A   Scattered Clouds
10:55 PM 71.6 °F 64.4 °F 78% 29.92 in 6.2 mi East 13.8 mph - N/A   Scattered Clouds
11:00 PM 72 °F 64 °F 71% 29.92 in 9 mi East 13.8 mph - -   Scattered Clouds
11:55 PM 73.4 °F 66.2 °F 78% 29.92 in 6.2 mi ESE 11.5 mph - N/A   Mostly Cloudy